La Gomera > ESTACION METEOROLÓGICA Vallehermoso

DATOS ACTUALES Online

Ultima actulizacion 11 minutos

21.7 ºC

Temperatura

94

Humedad (%)

1012.2

Presión (mb)

0

Precipitación (mm)

10.3 SW

Viento (Km/h)

DATOS DIARIOS

Temperatura últimas 24 horas (ºC)

Humedad últimas 24 horas (%)

Presión atmosférica últimas 24 horas (mb)

Precipitaciones últimas 23 horas (mm)

Viento últimas 24 horas (Km/h)

Hora Temperatura (°C) ºC Precipitación (mm) mm Presión (mb) mb Humedad (%) % Viento (Km/h) km/h
24 - 23:00 23.8 0 1016 75 13.8 NO
25 - 00:00 23.8 0 1015 75 11.3 NO
25 - 01:00 23.6 0 1015 71 12.2 SW
25 - 02:00 23.8 0 1015 78 20 NO
25 - 03:00 23.6 0 1014 79 12.3 NO
25 - 04:00 22.2 0 1014 85 10 SW
25 - 05:00 21.9 0 1014 86 8.6 SW
25 - 06:00 21.5 0 1014 88 10 SW
25 - 07:00 21.6 0 1014 90 12.9 N
25 - 08:00 21.6 0 1014 91 9.6 SW
25 - 09:00 21.3 0 1015 91 10.7 SW
25 - 10:00 20.9 0 1015 90 4.1 NO
25 - 11:00 20.8 0 1016 92 8.7 NO
25 - 12:00 20.5 0 1015 91 7.5 W
25 - 13:00 21.1 0 1015 92 5.2 W
25 - 14:00 21.4 0 1014 92 5.4 N
25 - 15:00 21.5 0 1013 92 8.4 NO
25 - 16:00 21.6 0 1013 93 10.4 NO
25 - 17:00 21.5 0 1013 93 7.1 NO
25 - 18:00 21.8 0 1013 93 5.3 SW
25 - 19:00 21.5 0 1012 93 11.7 SW
25 - 20:00 21.9 0 1012 93 3.3 SW
25 - 21:00 22 0 1013 94 3.8 SO
25 - 22:00 21.7 0 1012 94 10.3 SW
25 - 23:00
Apalmet utiliza cookies propias y de terceros para mejorar la usabilidad y la experiencia web. Política de cookies.